Location: Cahas Mountain Overlook
(37.0833°N, 80.1000°W)
Time: 06:58:30
(UTC-04:00)

Tiros 1 - Pass Details

Date: 10 February 2026
Orbit: 618 x 650 km, 48.4° (Epoch: 14 March)

Event Time Altitude Azimuth Distance (km) Brightness Sun altitude
Rises 12:03:42 0° 250° (WSW) 2,888 10.6 38.2°
Reaches altitude 10° 12:06:04 10° 256° (WSW) 1,980 9.8 38.3°
Maximum altitude 12:10:29 49° 331° (NNW) 802 7.7 38.4°
Drops below altitude 10° 12:14:53 10° 47° (NE) 1,978 9.5 38.5°
Sets 12:17:16 0° 53° (NE) 2,885 10.2 38.6°
